,VESSEL WALL ABOVE BOTTOM HEAD(TE-2-3-69H3),RPV Temperature(TE-2-3-69R),Volume of water injection to RPV(FDW),Volume of water injection to RPV(CS),Volume of water injection to RPV(FDW+CS),Temperature in the water injection to the reactor�iFDW�j,Temperature in the water injection to the reactor�iCS�j,Radioactive concentration in PCV (Xe 135) System A[indicated value],Radioactive concentration in PCV (Xe 135) System A[detection limit],Radioactive concentration in PCV (Xe 135) System B[indicated value],Radioactive concentration in PCV (Xe 135) System B[detection limit],note
Unit,��,��,m3/h,m3/h,m3/h,��,��,Bq/cm3,Bq/cm3,Bq/cm3,Bq/cm3,
Instrument condition at the newest time,,,,,,,,,,,,
2022/6/1 1:00,27.6,32.9,1.7 ,0.0 ,1.8 ,20.1,-,ND,1.30E-01,ND,1.30E-01,
2022/6/1 2:00,27.6,32.9,1.7 ,0.0 ,1.8 ,20.1,-,ND,1.30E-01,ND,1.30E-01,
2022/6/1 3:00,27.6,32.9,1.7 ,0.0 ,1.8 ,20.1,-,ND,1.30E-01,ND,1.30E-01,
2022/6/1 4:00,27.6,32.9,1.7 ,0.0 ,1.8 ,20.1,-,ND,1.30E-01,ND,1.30E-01,
2022/6/1 5:00,27.6,32.9,1.7 ,0.0 ,1.8 ,20.1,-,ND,1.30E-01,ND,1.30E-01,
2022/6/1 6:00,27.6,32.9,1.7 ,0.0 ,1.8 ,20.1,-,ND,1.30E-01,ND,1.30E-01,
2022/6/1 7:00,27.6,32.8,1.7 ,0.0 ,1.8 ,20.1,-,ND,1.30E-01,ND,1.30E-01,
2022/6/1 8:00,27.6,32.9,1.7 ,0.0 ,1.8 ,20.2,-,ND,1.30E-01,ND,1.30E-01,
2022/6/1 9:00,27.6,33,1.7 ,0.0 ,1.8 ,20.1,-,ND,1.30E-01,ND,1.30E-01,
2022/6/1 10:00,27.6,32.9,1.7 ,0.0 ,1.8 ,20.1,-,ND,1.30E-01,ND,1.30E-01,
2022/6/1 11:00,27.7,32.9,1.7 ,0.0 ,1.8 ,20.1,-,ND,1.30E-01,ND,1.30E-01,
2022/6/1 12:00,27.7,32.9,1.7 ,0.0 ,1.8 ,20.3,-,ND,1.30E-01,ND,1.30E-01,
2022/6/1 13:00,27.6,32.8,1.7 ,0.0 ,1.8 ,20.3,-,ND,1.20E-01,ND,1.30E-01,
2022/6/1 14:00,27.6,32.8,1.7 ,0.0 ,1.8 ,20.3,-,ND,1.30E-01,ND,1.30E-01,
2022/6/1 15:00,27.7,32.8,1.7 ,0.0 ,1.8 ,20.3,-,ND,1.30E-01,ND,1.30E-01,
2022/6/1 16:00,27.7,32.8,1.7 ,0.0 ,1.8 ,20.3,-,ND,1.20E-01,ND,1.30E-01,
2022/6/1 17:00,27.7,32.8,1.7 ,0.0 ,1.8 ,20.3,-,ND,1.30E-01,ND,1.30E-01,
2022/6/1 18:00,27.7,32.8,1.7 ,0.0 ,1.8 ,20.3,-,ND,1.30E-01,ND,1.30E-01,
2022/6/1 19:00,27.7,32.8,1.7 ,0.0 ,1.8 ,20.4,-,ND,1.30E-01,ND,1.30E-01,
2022/6/1 20:00,27.7,32.8,1.7 ,0.0 ,1.8 ,20.3,-,ND,1.30E-01,ND,1.30E-01,
2022/6/1 21:00,27.7,32.8,1.7 ,0.0 ,1.8 ,20.4,-,ND,1.30E-01,ND,1.30E-01,
2022/6/1 22:00,27.7,32.8,1.7 ,0.0 ,1.8 ,20.5,-,ND,1.30E-01,ND,1.30E-01,
2022/6/1 23:00,27.7,32.8,1.7 ,0.0 ,1.8 ,20.4,-,ND,1.30E-01,ND,1.30E-01,
2022/6/2 0:00,27.7,32.8,1.7 ,0.0 ,1.8 ,20.4,-,ND,1.30E-01,ND,1.30E-01,
2022/6/2 1:00,27.7,32.8,1.7 ,0.0 ,1.8 ,20.3,-,ND,1.30E-01,ND,1.30E-01,
2022/6/2 2:00,27.7,32.8,1.7 ,0.0 ,1.8 ,20.3,-,ND,1.30E-01,ND,1.30E-01,
2022/6/2 3:00,27.7,32.8,1.7 ,0.0 ,1.8 ,20.4,-,ND,1.30E-01,ND,1.30E-01,
2022/6/2 4:00,27.7,32.8,1.7 ,0.0 ,1.8 ,20.3,-,ND,1.20E-01,ND,1.30E-01,
2022/6/2 5:00,27.7,32.8,1.7 ,0.0 ,1.8 ,20.3,-,ND,1.30E-01,ND,1.30E-01,
2022/6/2 6:00,27.7,32.8,1.7 ,0.0 ,1.8 ,20.4,-,ND,1.30E-01,ND,1.30E-01,
2022/6/2 7:00,27.7,32.8,1.7 ,0.0 ,1.8 ,20.3,-,ND,1.30E-01,ND,1.20E-01,
2022/6/2 8:00,27.7,32.8,1.7 ,0.0 ,1.8 ,20.3,-,ND,1.30E-01,ND,1.30E-01,
2022/6/2 9:00,27.7,32.8,1.7 ,0.0 ,1.8 ,20.3,-,ND,1.30E-01,ND,1.30E-01,
2022/6/2 10:00,27.7,32.8,1.7 ,0.0 ,1.8 ,20.5,-,ND,1.30E-01,ND,1.30E-01,
2022/6/2 11:00,27.8,33.4,0.0 ,1.7 ,1.8 ,-,20.4,ND,1.30E-01,ND,1.30E-01,
2022/6/2 12:00,27.8,33.3,0.0 ,1.7 ,1.8 ,-,20.5,ND,1.30E-01,ND,1.30E-01,
2022/6/2 13:00,27.8,33.3,0.0 ,1.6 ,1.8 ,-,20.5,ND,1.30E-01,ND,1.30E-01,
2022/6/2 14:00,27.8,33.2,0.0 ,1.6 ,1.8 ,-,20.5,ND,1.30E-01,ND,1.30E-01,
2022/6/2 15:00,27.9,33.2,0.0 ,1.6 ,1.8 ,-,20.5,ND,1.30E-01,ND,1.30E-01,
2022/6/2 16:00,27.9,33.2,0.0 ,1.6 ,1.8 ,-,20.5,ND,1.30E-01,ND,1.30E-01,
2022/6/2 17:00,27.9,33.2,0.0 ,1.6 ,1.7 ,-,20.5,ND,1.30E-01,ND,1.30E-01,
2022/6/2 18:00,28,33.2,0.0 ,1.6 ,1.8 ,-,20.5,ND,1.30E-01,ND,1.30E-01,
2022/6/2 19:00,28,33.2,0.0 ,1.6 ,1.8 ,-,20.6,ND,1.30E-01,ND,1.30E-01,
2022/6/2 20:00,28,33.2,0.0 ,1.6 ,1.8 ,-,20.6,ND,1.30E-01,ND,1.30E-01,
2022/6/2 21:00,28,33.2,0.0 ,1.6 ,1.8 ,-,20.5,ND,1.30E-01,ND,1.30E-01,
2022/6/2 22:00,28.1,33.2,0.0 ,1.6 ,1.7 ,-,20.5,ND,1.30E-01,ND,1.30E-01,
2022/6/2 23:00,28.1,33.2,0.0 ,1.6 ,1.7 ,-,20.5,ND,1.30E-01,ND,1.30E-01,
2022/6/3 0:00,28.1,33.2,0.0 ,1.6 ,1.8 ,-,20.5,ND,1.30E-01,ND,1.30E-01,
2022/6/3 1:00,28.1,33.2,0.0 ,1.6 ,1.8 ,-,20.6,ND,1.30E-01,ND,1.20E-01,
2022/6/3 2:00,28.1,33.1,0.0 ,1.6 ,1.8 ,-,20.6,ND,1.30E-01,ND,1.30E-01,
2022/6/3 3:00,28.1,33.1,0.0 ,1.6 ,1.8 ,-,20.5,ND,1.30E-01,ND,1.20E-01,
2022/6/3 4:00,28.1,33.1,0.0 ,1.6 ,1.8 ,-,20.5,ND,1.30E-01,ND,1.30E-01,
2022/6/3 5:00,28.1,33.1,0.0 ,1.6 ,1.7 ,-,20.5,ND,1.30E-01,ND,1.30E-01,
2022/6/3 6:00,28.2,33.1,0.0 ,1.6 ,1.8 ,-,20.5,ND,1.30E-01,ND,1.30E-01,
2022/6/3 7:00,28.2,33,0.0 ,1.6 ,1.8 ,-,20.5,ND,1.30E-01,ND,1.30E-01,
2022/6/3 8:00,28.2,33,0.0 ,1.6 ,1.8 ,-,20.5,ND,1.30E-01,ND,1.30E-01,
2022/6/3 9:00,28.2,33,0.0 ,1.6 ,1.8 ,-,20.5,ND,1.30E-01,ND,1.30E-01,
2022/6/3 10:00,28.2,33,0.0 ,1.6 ,1.7 ,-,20.5,ND,1.30E-01,ND,1.30E-01,
2022/6/3 11:00,28.2,33,0.0 ,1.6 ,1.8 ,-,20.6,ND,1.30E-01,ND,1.30E-01,
2022/6/3 12:00,28.2,33,0.0 ,1.6 ,1.8 ,-,20.5,ND,1.20E-01,ND,1.30E-01,
2022/6/3 13:00,28.2,32.9,0.0 ,1.6 ,1.8 ,-,20.5,ND,1.30E-01,ND,1.30E-01,
2022/6/3 14:00,28.2,32.8,0.0 ,1.6 ,1.7 ,-,20.5,ND,1.30E-01,ND,1.30E-01,
2022/6/3 15:00,28.2,32.8,0.0 ,1.7 ,1.8 ,-,20.5,ND,1.30E-01,ND,1.30E-01,
2022/6/3 16:00,28.2,32.8,0.0 ,1.6 ,1.8 ,-,20.6,ND,1.30E-01,ND,1.30E-01,
2022/6/3 17:00,28.2,32.8,0.0 ,1.6 ,1.8 ,-,20.5,ND,1.30E-01,ND,1.30E-01,
2022/6/3 18:00,28.2,32.8,0.0 ,1.7 ,1.8 ,-,20.5,ND,1.30E-01,ND,1.30E-01,
2022/6/3 19:00,28.2,32.7,0.0 ,1.7 ,1.8 ,-,20.6,ND,1.30E-01,ND,1.30E-01,
2022/6/3 20:00,28.2,32.7,0.0 ,1.6 ,1.7 ,-,20.6,ND,1.30E-01,ND,1.30E-01,
2022/6/3 21:00,28.2,32.7,0.0 ,1.7 ,1.8 ,-,20.5,ND,1.20E-01,ND,1.30E-01,
2022/6/3 22:00,28.3,32.7,0.0 ,1.7 ,1.8 ,-,20.6,ND,1.30E-01,ND,1.30E-01,
2022/6/3 23:00,28.3,32.7,0.0 ,1.7 ,1.8 ,-,20.5,ND,1.30E-01,ND,1.30E-01,
2022/6/4 0:00,28.3,32.7,0.0 ,1.7 ,1.8 ,-,20.5,ND,1.30E-01,ND,1.20E-01,
2022/6/4 1:00,28.3,32.6,0.0 ,1.7 ,1.8 ,-,20.5,ND,1.30E-01,ND,1.30E-01,
2022/6/4 2:00,28.3,32.6,0.0 ,1.7 ,1.8 ,-,20.5,ND,1.30E-01,ND,1.30E-01,
2022/6/4 3:00,28.3,32.6,0.0 ,1.6 ,1.8 ,-,20.5,ND,1.30E-01,ND,1.30E-01,
2022/6/4 4:00,28.3,32.6,0.0 ,1.7 ,1.8 ,-,20.5,ND,1.30E-01,ND,1.30E-01,
2022/6/4 5:00,28.3,32.5,0.0 ,1.7 ,1.8 ,-,20.5,ND,1.30E-01,ND,1.30E-01,
2022/6/4 6:00,28.3,32.5,0.0 ,1.6 ,1.8 ,-,20.4,ND,1.30E-01,ND,1.30E-01,
2022/6/4 7:00,28.3,32.5,0.0 ,1.7 ,1.8 ,-,20.4,ND,1.30E-01,ND,1.30E-01,
2022/6/4 8:00,28.3,32.5,0.0 ,1.6 ,1.7 ,-,20.5,ND,1.30E-01,ND,1.20E-01,
2022/6/4 9:00,28.3,32.4,0.0 ,1.7 ,1.8 ,-,20.5,ND,1.30E-01,ND,1.30E-01,
2022/6/4 10:00,28.3,32.4,0.0 ,1.7 ,1.8 ,-,20.5,ND,1.30E-01,ND,1.30E-01,
2022/6/4 11:00,28.3,32.4,0.0 ,1.7 ,1.8 ,-,20.5,ND,1.30E-01,ND,1.20E-01,
2022/6/4 12:00,28.3,32.4,0.0 ,1.7 ,1.8 ,-,20.5,ND,1.30E-01,ND,1.30E-01,
2022/6/4 13:00,28.3,32.3,0.0 ,1.7 ,1.8 ,-,20.5,ND,1.30E-01,ND,1.30E-01,
2022/6/4 14:00,28.3,32.3,0.0 ,1.7 ,1.8 ,-,20.6,ND,1.30E-01,ND,1.20E-01,
2022/6/4 15:00,28.3,32.2,0.0 ,1.7 ,1.8 ,-,20.6,ND,1.30E-01,ND,1.30E-01,
2022/6/4 16:00,28.3,32.2,0.0 ,1.7 ,1.8 ,-,20.5,ND,1.30E-01,ND,1.30E-01,
2022/6/4 17:00,28.3,32.2,0.0 ,1.7 ,1.8 ,-,20.5,ND,1.30E-01,ND,1.20E-01,
2022/6/4 18:00,28.3,32.2,0.0 ,1.6 ,1.8 ,-,20.6,ND,1.30E-01,ND,1.30E-01,
2022/6/4 19:00,28.3,32.2,0.0 ,1.7 ,1.8 ,-,20.6,ND,1.30E-01,ND,1.30E-01,
2022/6/4 20:00,28.3,32.1,0.0 ,1.7 ,1.8 ,-,20.6,ND,1.20E-01,ND,1.30E-01,
2022/6/4 21:00,28.3,32.1,0.0 ,1.7 ,1.8 ,-,20.5,ND,1.20E-01,ND,1.20E-01,
2022/6/4 22:00,28.3,32.1,0.0 ,1.7 ,1.8 ,-,20.5,ND,1.30E-01,ND,1.30E-01,
2022/6/4 23:00,28.3,32.1,0.0 ,1.7 ,1.8 ,-,20.5,ND,1.30E-01,ND,1.30E-01,
2022/6/5 0:00,28.3,32.1,0.0 ,1.7 ,1.8 ,-,20.5,ND,1.30E-01,ND,1.30E-01,
2022/6/5 1:00,28.3,32,0.0 ,1.6 ,1.7 ,-,20.5,ND,1.30E-01,ND,1.30E-01,
2022/6/5 2:00,28.3,32,0.0 ,1.7 ,1.8 ,-,20.5,ND,1.30E-01,ND,1.30E-01,
2022/6/5 3:00,28.3,32,0.0 ,1.7 ,1.8 ,-,20.5,ND,1.30E-01,ND,1.30E-01,
2022/6/5 4:00,28.3,32,0.0 ,1.7 ,1.7 ,-,20.5,ND,1.30E-01,ND,1.30E-01,
2022/6/5 5:00,28.3,32,0.0 ,1.7 ,1.8 ,-,20.5,ND,1.30E-01,ND,1.30E-01,
2022/6/5 6:00,28.3,31.9,0.0 ,1.7 ,1.8 ,-,20.5,ND,1.30E-01,ND,1.20E-01,
2022/6/5 7:00,28.3,31.9,0.0 ,1.7 ,1.8 ,-,20.5,ND,1.30E-01,ND,1.30E-01,
2022/6/5 8:00,28.3,31.9,0.0 ,1.7 ,1.8 ,-,20.5,ND,1.30E-01,ND,1.30E-01,
2022/6/5 9:00,28.3,31.9,0.0 ,1.7 ,1.8 ,-,20.4,ND,1.30E-01,ND,1.30E-01,
2022/6/5 10:00,28.3,31.9,0.0 ,1.7 ,1.8 ,-,20.5,ND,1.30E-01,ND,1.30E-01,
2022/6/5 11:00,28.3,31.8,0.0 ,1.7 ,1.8 ,-,20.5,ND,1.30E-01,ND,1.30E-01,
2022/6/5 12:00,28.3,31.8,0.0 ,1.7 ,1.8 ,-,20.5,ND,1.30E-01,ND,1.30E-01,
2022/6/5 13:00,28.3,31.7,0.0 ,1.7 ,1.8 ,-,20.5,ND,1.30E-01,ND,1.30E-01,
2022/6/5 14:00,28.3,31.8,0.0 ,1.7 ,1.8 ,-,20.5,ND,1.20E-01,ND,1.30E-01,
2022/6/5 15:00,28.3,31.8,0.0 ,1.7 ,1.8 ,-,20.5,ND,1.30E-01,ND,1.30E-01,
2022/6/5 16:00,28.3,31.8,0.0 ,1.7 ,1.8 ,-,20.5,ND,1.30E-01,ND,1.30E-01,
2022/6/5 17:00,28.3,31.7,0.0 ,1.7 ,1.8 ,-,20.5,ND,1.30E-01,ND,1.30E-01,
2022/6/5 18:00,28.3,31.7,0.0 ,1.7 ,1.8 ,-,20.5,ND,1.30E-01,ND,1.20E-01,
2022/6/5 19:00,28.3,31.7,0.0 ,1.7 ,1.8 ,-,20.5,ND,1.30E-01,ND,1.30E-01,
2022/6/5 20:00,28.3,31.7,0.0 ,1.7 ,1.8 ,-,20.5,ND,1.30E-01,ND,1.30E-01,
2022/6/5 21:00,28.3,31.7,0.0 ,1.7 ,1.8 ,-,20.5,ND,1.30E-01,ND,1.30E-01,
2022/6/5 22:00,28.3,31.7,0.0 ,1.7 ,1.8 ,-,20.5,ND,1.30E-01,ND,1.30E-01,
2022/6/5 23:00,28.3,31.7,0.0 ,1.7 ,1.8 ,-,20.5,ND,1.30E-01,ND,1.30E-01,
2022/6/6 0:00,28.3,31.7,0.0 ,1.7 ,1.8 ,-,20.5,ND,1.30E-01,ND,1.20E-01,
2022/6/6 1:00,28.3,31.6,0.0 ,1.7 ,1.8 ,-,20.4,ND,1.30E-01,ND,1.30E-01,
2022/6/6 2:00,28.3,31.6,0.0 ,1.7 ,1.8 ,-,20.4,ND,1.30E-01,ND,1.30E-01,
2022/6/6 3:00,28.3,31.6,0.0 ,1.7 ,1.8 ,-,20.4,ND,1.30E-01,ND,1.20E-01,
2022/6/6 4:00,28.3,31.6,0.0 ,1.7 ,1.8 ,-,20.3,ND,1.30E-01,ND,1.30E-01,
2022/6/6 5:00,28.3,31.6,0.0 ,1.7 ,1.8 ,-,20.4,ND,1.30E-01,ND,1.30E-01,
2022/6/6 6:00,28.3,31.6,0.0 ,1.7 ,1.8 ,-,20.4,ND,1.30E-01,ND,1.20E-01,
2022/6/6 7:00,28.3,31.6,0.0 ,1.7 ,1.8 ,-,20.3,ND,1.30E-01,ND,1.30E-01,
2022/6/6 8:00,28.3,31.6,0.0 ,1.7 ,1.8 ,-,20.3,ND,1.30E-01,ND,1.30E-01,
2022/6/6 9:00,28.3,31.7,0.0 ,1.7 ,1.8 ,-,20.3,ND,1.30E-01,ND,1.30E-01,
2022/6/6 10:00,28.3,31.6,0.0 ,1.7 ,1.8 ,-,20.3,ND,1.30E-01,ND,1.30E-01,
2022/6/6 11:00,28.3,31.7,0.0 ,1.7 ,1.8 ,-,20.2,ND,1.30E-01,ND,1.30E-01,
2022/6/6 12:00,28.3,31.7,0.0 ,1.7 ,1.8 ,-,20.2,ND,1.30E-01,ND,1.30E-01,
2022/6/6 13:00,28.3,31.7,0.0 ,1.7 ,1.8 ,-,20.2,ND,1.30E-01,ND,1.30E-01,
2022/6/6 14:00,28.3,31.7,0.0 ,1.7 ,1.8 ,-,20.2,ND,1.30E-01,ND,1.30E-01,
2022/6/6 15:00,28.3,31.7,0.0 ,1.7 ,1.8 ,-,20.1,ND,1.30E-01,ND,1.30E-01,
2022/6/6 16:00,28.3,31.7,0.0 ,1.7 ,1.8 ,-,20.1,ND,1.30E-01,ND,1.30E-01,
2022/6/6 17:00,28.3,31.6,0.0 ,1.7 ,1.8 ,-,20,ND,1.30E-01,ND,1.30E-01,
2022/6/6 18:00,28.3,31.5,0.0 ,1.7 ,1.8 ,-,20.1,ND,1.30E-01,ND,1.30E-01,
2022/6/6 19:00,28.3,31.6,0.0 ,1.7 ,1.8 ,-,20,ND,1.30E-01,ND,1.30E-01,
2022/6/6 20:00,28.3,31.5,0.0 ,1.7 ,1.8 ,-,20.1,ND,1.30E-01,ND,1.30E-01,
2022/6/6 21:00,28.3,31.5,0.0 ,1.7 ,1.8 ,-,20.1,ND,1.30E-01,ND,1.30E-01,
2022/6/6 22:00,28.3,31.5,0.0 ,1.7 ,1.8 ,-,20.1,ND,1.30E-01,ND,1.30E-01,
2022/6/6 23:00,28.3,31.5,0.0 ,1.7 ,1.8 ,-,20,ND,1.30E-01,ND,1.20E-01,
2022/6/7 0:00,28.3,31.5,0.0 ,1.7 ,1.8 ,-,20,ND,1.30E-01,ND,1.30E-01,
2022/6/7 1:00,28.3,31.6,0.0 ,1.7 ,1.8 ,-,20,ND,1.30E-01,ND,1.30E-01,
2022/6/7 2:00,28.3,31.6,0.0 ,1.7 ,1.8 ,-,20,ND,1.30E-01,ND,1.30E-01,
2022/6/7 3:00,28.3,31.6,0.0 ,1.7 ,1.8 ,-,20,ND,1.30E-01,ND,1.30E-01,
2022/6/7 4:00,28.3,31.7,0.0 ,1.7 ,1.8 ,-,19.8,ND,1.20E-01,ND,1.30E-01,
2022/6/7 5:00,28.3,31.7,0.0 ,1.7 ,1.8 ,-,19.9,ND,1.30E-01,ND,1.30E-01,
2022/6/7 6:00,28.3,31.8,0.0 ,1.7 ,1.7 ,-,19.9,ND,1.30E-01,ND,1.30E-01,
2022/6/7 7:00,28.3,31.7,0.0 ,1.7 ,1.8 ,-,19.8,ND,1.30E-01,ND,1.30E-01,
2022/6/7 8:00,28.3,31.8,0.0 ,1.7 ,1.8 ,-,19.8,ND,1.30E-01,ND,1.30E-01,
2022/6/7 9:00,28.3,31.7,0.0 ,1.7 ,1.8 ,-,19.8,ND,1.30E-01,ND,1.30E-01,
2022/6/7 10:00,28.3,31.6,0.0 ,1.7 ,1.8 ,-,19.8,ND,1.30E-01,ND,1.30E-01,
2022/6/7 11:00,28.3,31.6,0.0 ,1.7 ,1.8 ,-,19.7,ND,1.30E-01,ND,1.30E-01,
2022/6/7 12:00,28.3,31.6,0.0 ,1.6 ,1.8 ,-,19.7,ND,1.30E-01,ND,1.30E-01,
2022/6/7 13:00,28.3,31.5,0.0 ,1.7 ,1.8 ,-,19.7,ND,1.30E-01,ND,1.30E-01,
2022/6/7 14:00,28.3,31.5,0.0 ,1.7 ,1.8 ,-,19.7,ND,1.30E-01,ND,1.30E-01,
2022/6/7 15:00,28.3,31.5,0.0 ,1.7 ,1.8 ,-,19.6,ND,1.30E-01,ND,1.30E-01,
2022/6/7 16:00,28.3,31.4,0.0 ,1.7 ,1.7 ,-,19.7,ND,1.30E-01,ND,1.20E-01,
2022/6/7 17:00,28.3,31.4,0.0 ,1.7 ,1.8 ,-,19.7,ND,1.30E-01,ND,1.30E-01,
2022/6/7 18:00,28.3,31.4,0.0 ,1.7 ,1.7 ,-,19.7,ND,1.30E-01,ND,1.30E-01,
2022/6/7 19:00,28.3,31.4,0.0 ,1.7 ,1.8 ,-,19.7,ND,1.30E-01,ND,1.30E-01,
2022/6/7 20:00,28.3,31.4,0.0 ,1.7 ,1.7 ,-,19.6,ND,1.30E-01,ND,1.30E-01,
2022/6/7 21:00,28.3,31.4,0.0 ,1.7 ,1.8 ,-,19.6,ND,1.30E-01,ND,1.30E-01,
2022/6/7 22:00,28.3,31.4,0.0 ,1.7 ,1.8 ,-,19.6,ND,1.20E-01,ND,1.20E-01,
2022/6/7 23:00,28.3,31.4,0.0 ,1.7 ,1.8 ,-,19.6,ND,1.30E-01,ND,1.30E-01,
2022/6/8 0:00,28.3,31.3,0.0 ,1.7 ,1.8 ,-,19.5,ND,1.30E-01,ND,1.30E-01,
2022/6/8 1:00,28.3,31.3,0.0 ,1.7 ,1.7 ,-,19.5,ND,1.30E-01,ND,1.30E-01,
2022/6/8 2:00,28.3,31.3,0.0 ,1.7 ,1.8 ,-,19.5,ND,1.30E-01,ND,1.30E-01,
2022/6/8 3:00,28.3,31.3,0.0 ,1.7 ,1.8 ,-,19.5,ND,1.30E-01,ND,1.30E-01,
2022/6/8 4:00,28.3,31.3,0.0 ,1.7 ,1.8 ,-,19.5,ND,1.30E-01,ND,1.30E-01,
2022/6/8 5:00,28.3,31.3,0.0 ,1.7 ,1.8 ,-,19.5,ND,1.30E-01,ND,1.30E-01,
2022/6/8 6:00,28.3,31.3,0.0 ,1.7 ,1.8 ,-,19.5,ND,1.30E-01,ND,1.30E-01,
2022/6/8 7:00,28.3,31.2,0.0 ,1.7 ,1.8 ,-,19.5,ND,1.30E-01,ND,1.30E-01,
2022/6/8 8:00,28.3,31.2,0.0 ,1.7 ,1.8 ,-,19.4,ND,1.30E-01,ND,1.30E-01,
2022/6/8 9:00,28.3,31.2,0.0 ,1.7 ,1.8 ,-,19.4,ND,1.30E-01,ND,1.30E-01,
2022/6/8 10:00,28.3,31.2,0.0 ,1.7 ,1.8 ,-,19.5,ND,1.30E-01,ND,1.30E-01,
2022/6/8 11:00,28.3,31.2,0.0 ,1.7 ,1.8 ,-,19.5,ND,1.30E-01,ND,1.30E-01,
2022/6/8 12:00,28.3,31.1,0.0 ,1.7 ,1.8 ,-,19.4,ND,1.30E-01,ND,1.30E-01,
2022/6/8 13:00,28.3,31,0.0 ,1.7 ,1.8 ,-,19.4,ND,1.30E-01,ND,1.30E-01,
2022/6/8 14:00,28.3,31,0.0 ,1.7 ,1.8 ,-,19.3,ND,1.30E-01,ND,1.30E-01,
2022/6/8 15:00,28.3,31,0.0 ,1.7 ,1.8 ,-,19.4,ND,1.30E-01,ND,1.30E-01,
2022/6/8 16:00,28.3,31,0.0 ,1.7 ,1.8 ,-,19.3,ND,1.30E-01,ND,1.30E-01,
2022/6/8 17:00,28.3,31,0.0 ,1.7 ,1.8 ,-,19.3,ND,1.30E-01,ND,1.30E-01,
2022/6/8 18:00,28.3,31,0.0 ,1.7 ,1.8 ,-,19.4,ND,1.30E-01,ND,1.30E-01,
2022/6/8 19:00,28.3,31,0.0 ,1.7 ,1.8 ,-,19.3,ND,1.30E-01,ND,1.30E-01,
2022/6/8 20:00,28.3,31,0.0 ,1.7 ,1.8 ,-,19.4,ND,1.30E-01,ND,1.30E-01,
2022/6/8 21:00,28.3,31,0.0 ,1.7 ,1.8 ,-,19.3,ND,1.30E-01,ND,1.30E-01,
2022/6/8 22:00,28.3,30.9,0.0 ,1.7 ,1.8 ,-,19.3,ND,1.30E-01,ND,1.20E-01,
2022/6/8 23:00,28.3,30.9,0.0 ,1.6 ,1.8 ,-,19.3,ND,1.30E-01,ND,1.30E-01,
2022/6/9 0:00,28.3,31,0.0 ,1.7 ,1.8 ,-,19.3,ND,1.30E-01,ND,1.30E-01,
2022/6/9 1:00,28.3,30.9,0.0 ,1.7 ,1.8 ,-,19.3,ND,1.30E-01,ND,1.30E-01,
2022/6/9 2:00,28.3,31,0.0 ,1.7 ,1.8 ,-,19.3,ND,1.30E-01,ND,1.20E-01,
2022/6/9 3:00,28.3,31,0.0 ,1.7 ,1.8 ,-,19.2,ND,1.30E-01,ND,1.30E-01,
2022/6/9 4:00,28.3,31,0.0 ,1.7 ,1.8 ,-,19.3,ND,1.30E-01,ND,1.30E-01,
2022/6/9 5:00,28.3,31,0.0 ,1.7 ,1.8 ,-,19.3,ND,1.30E-01,ND,1.30E-01,
2022/6/9 6:00,28.3,31,0.0 ,1.7 ,1.8 ,-,19.3,ND,1.30E-01,ND,1.30E-01,
2022/6/9 7:00,28.3,30.9,0.0 ,1.7 ,1.8 ,-,19.2,ND,1.30E-01,ND,1.30E-01,
2022/6/9 8:00,28.3,30.9,0.0 ,1.6 ,1.8 ,-,19.3,ND,1.30E-01,ND,1.20E-01,
2022/6/9 9:00,28.3,30.9,0.0 ,1.7 ,1.8 ,-,19.3,ND,1.30E-01,ND,1.30E-01,
2022/6/9 10:00,28.3,30.9,0.0 ,1.6 ,1.7 ,-,19.3,ND,1.30E-01,ND,1.30E-01,
2022/6/9 11:00,28.3,30.9,0.0 ,1.7 ,1.8 ,-,19.1,ND,1.30E-01,ND,1.30E-01,
2022/6/9 12:00,28.3,30.9,0.0 ,1.6 ,1.8 ,-,19.2,ND,1.30E-01,ND,1.30E-01,
2022/6/9 13:00,28.2,30.8,0.0 ,1.6 ,1.8 ,-,19.2,ND,1.30E-01,ND,1.30E-01,
2022/6/9 14:00,28.3,30.8,0.0 ,1.7 ,1.8 ,-,19.3,ND,1.30E-01,ND,1.30E-01,
2022/6/9 15:00,28.2,30.8,0.0 ,1.6 ,1.7 ,-,19.1,ND,1.30E-01,ND,1.30E-01,
2022/6/9 16:00,28.2,30.8,0.0 ,1.7 ,1.8 ,-,19.1,ND,1.30E-01,ND,1.30E-01,
2022/6/9 17:00,28.2,30.8,0.0 ,1.6 ,1.8 ,-,19.2,ND,1.30E-01,ND,1.30E-01,
2022/6/9 18:00,28.2,30.8,0.0 ,1.6 ,1.8 ,-,19.3,ND,1.30E-01,ND,1.30E-01,
2022/6/9 19:00,28.2,30.8,0.0 ,1.6 ,1.8 ,-,19.3,ND,1.30E-01,ND,1.30E-01,
2022/6/9 20:00,28.2,30.8,0.0 ,1.6 ,1.7 ,-,19.1,ND,1.30E-01,ND,1.30E-01,
2022/6/9 21:00,28.2,30.8,0.0 ,1.6 ,1.8 ,-,19.2,ND,1.30E-01,ND,1.30E-01,
2022/6/9 22:00,28.2,30.8,0.0 ,1.6 ,1.7 ,-,19.2,ND,1.30E-01,ND,1.30E-01,
2022/6/9 23:00,28.2,30.8,0.0 ,1.6 ,1.7 ,-,19.2,ND,1.30E-01,ND,1.20E-01,
2022/6/10 0:00,28.2,30.8,0.0 ,1.6 ,1.7 ,-,19.2,ND,1.30E-01,ND,1.30E-01,
2022/6/10 1:00,28.2,30.8,0.0 ,1.6 ,1.7 ,-,19.1,ND,1.30E-01,ND,1.20E-01,
2022/6/10 2:00,28.2,30.7,0.0 ,1.6 ,1.7 ,-,19.1,ND,1.30E-01,ND,1.30E-01,
2022/6/10 3:00,28.2,30.7,0.0 ,1.6 ,1.7 ,-,19.2,ND,1.30E-01,ND,1.30E-01,
2022/6/10 4:00,28.2,30.7,0.0 ,1.6 ,1.7 ,-,19.2,ND,1.30E-01,ND,1.30E-01,
2022/6/10 5:00,28.2,30.7,0.0 ,1.6 ,1.7 ,-,19.2,ND,1.30E-01,ND,1.30E-01,
2022/6/10 6:00,28.2,30.7,0.0 ,1.6 ,1.8 ,-,19.2,ND,1.30E-01,ND,1.30E-01,
2022/6/10 7:00,28.2,30.7,0.0 ,1.6 ,1.7 ,-,19.1,ND,1.30E-01,ND,1.30E-01,
2022/6/10 8:00,28.2,30.7,0.0 ,1.6 ,1.7 ,-,19.2,ND,1.30E-01,ND,1.30E-01,
2022/6/10 9:00,28.2,30.6,0.0 ,1.6 ,1.7 ,-,19.2,ND,1.30E-01,ND,1.30E-01,
2022/6/10 10:00,28.2,30.7,0.0 ,1.6 ,1.7 ,-,19.2,ND,1.30E-01,ND,1.30E-01,
2022/6/10 11:00,28.2,30.7,0.0 ,1.6 ,1.7 ,-,19.3,ND,1.30E-01,ND,1.30E-01,
2022/6/10 12:00,28.2,30.7,0.0 ,1.6 ,1.7 ,-,19.3,ND,1.30E-01,ND,1.30E-01,
2022/6/10 13:00,28.2,30.8,0.0 ,1.6 ,1.7 ,-,19.3,ND,1.30E-01,ND,1.30E-01,
2022/6/10 14:00,28.2,30.7,0.0 ,1.6 ,1.7 ,-,19.3,ND,1.30E-01,ND,1.30E-01,
2022/6/10 15:00,28.2,30.8,0.0 ,1.6 ,1.8 ,-,19.3,ND,1.30E-01,ND,1.30E-01,
2022/6/10 16:00,28.2,30.8,0.0 ,1.6 ,1.8 ,-,19.2,ND,1.30E-01,ND,1.30E-01,
2022/6/10 17:00,28.2,30.8,0.0 ,1.6 ,1.7 ,-,19.3,ND,1.30E-01,ND,1.30E-01,
2022/6/10 18:00,28.2,30.8,0.0 ,1.6 ,1.7 ,-,19.3,ND,1.30E-01,ND,1.20E-01,
2022/6/10 19:00,28.2,30.8,0.0 ,1.6 ,1.7 ,-,19.3,ND,1.30E-01,ND,1.30E-01,
2022/6/10 20:00,28.2,30.8,0.0 ,1.6 ,1.7 ,-,19.3,ND,1.30E-01,ND,1.30E-01,
2022/6/10 21:00,28.2,30.8,0.0 ,1.6 ,1.8 ,-,19.2,ND,1.30E-01,ND,1.30E-01,
2022/6/10 22:00,28.2,30.8,0.0 ,1.6 ,1.7 ,-,19.3,ND,1.30E-01,ND,1.30E-01,
2022/6/10 23:00,28.2,30.8,0.0 ,1.6 ,1.8 ,-,19.2,ND,1.30E-01,ND,1.30E-01,
2022/6/11 0:00,28.2,30.8,0.0 ,1.6 ,1.7 ,-,19.2,ND,1.30E-01,ND,1.20E-01,
2022/6/11 1:00,28.2,30.8,0.0 ,1.6 ,1.7 ,-,19.3,ND,1.30E-01,ND,1.30E-01,
2022/6/11 2:00,28.2,30.8,0.0 ,1.6 ,1.7 ,-,19.2,ND,1.30E-01,ND,1.30E-01,
2022/6/11 3:00,28.2,30.8,0.0 ,1.6 ,1.7 ,-,19.2,ND,1.30E-01,ND,1.20E-01,
2022/6/11 4:00,28.2,30.8,0.0 ,1.6 ,1.8 ,-,19.1,ND,1.30E-01,ND,1.30E-01,
2022/6/11 5:00,28.2,30.8,0.0 ,1.6 ,1.8 ,-,19.3,ND,1.30E-01,ND,1.30E-01,
2022/6/11 6:00,28.2,30.8,0.0 ,1.6 ,1.7 ,-,19.2,ND,1.30E-01,ND,1.30E-01,
2022/6/11 7:00,28.2,30.8,0.0 ,1.6 ,1.8 ,-,19.1,ND,1.30E-01,ND,1.30E-01,
2022/6/11 8:00,28.2,30.8,0.0 ,1.6 ,1.8 ,-,19.1,ND,1.30E-01,ND,1.30E-01,
2022/6/11 9:00,28.2,30.8,0.0 ,1.6 ,1.7 ,-,19.2,ND,1.30E-01,ND,1.20E-01,
2022/6/11 10:00,28.2,30.8,0.0 ,1.6 ,1.8 ,-,19.2,ND,1.30E-01,ND,1.30E-01,
2022/6/11 11:00,28.2,30.8,0.0 ,1.6 ,1.8 ,-,19.1,ND,1.30E-01,ND,1.30E-01,
2022/6/11 12:00,28.2,30.8,0.0 ,1.6 ,1.7 ,-,19.2,ND,1.30E-01,ND,1.30E-01,
2022/6/11 13:00,28.2,30.7,0.0 ,1.6 ,1.8 ,-,19.2,ND,1.30E-01,ND,1.30E-01,
2022/6/11 14:00,28.2,30.7,0.0 ,1.6 ,1.8 ,-,19.3,ND,1.30E-01,ND,1.30E-01,
2022/6/11 15:00,28.2,30.7,0.0 ,1.6 ,1.8 ,-,19.3,ND,1.30E-01,ND,1.30E-01,
2022/6/11 16:00,28.2,30.7,0.0 ,1.7 ,1.8 ,-,19.3,ND,1.30E-01,ND,1.30E-01,
2022/6/11 17:00,28.2,30.7,0.0 ,1.6 ,1.7 ,-,19.3,ND,1.30E-01,ND,1.30E-01,
2022/6/11 18:00,28.2,30.7,0.0 ,1.6 ,1.8 ,-,19.2,ND,1.30E-01,ND,1.30E-01,
2022/6/11 19:00,28.2,30.7,0.0 ,1.7 ,1.8 ,-,19.2,ND,1.30E-01,ND,1.30E-01,
2022/6/11 20:00,28.2,30.7,0.0 ,1.7 ,1.8 ,-,19.2,ND,1.30E-01,ND,1.30E-01,
2022/6/11 21:00,28.2,30.7,0.0 ,1.7 ,1.7 ,-,19.3,ND,1.30E-01,ND,1.30E-01,
2022/6/11 22:00,28.2,30.7,0.0 ,1.7 ,1.8 ,-,19.3,ND,1.30E-01,ND,1.30E-01,
2022/6/11 23:00,28.2,30.7,0.0 ,1.7 ,1.8 ,-,19.3,ND,1.30E-01,ND,1.30E-01,
2022/6/12 0:00,28.2,30.7,0.0 ,1.6 ,1.7 ,-,19.3,ND,1.30E-01,ND,1.30E-01,
2022/6/12 1:00,28.2,30.7,0.0 ,1.6 ,1.8 ,-,19.2,ND,1.30E-01,ND,1.30E-01,
2022/6/12 2:00,28.2,30.7,0.0 ,1.7 ,1.8 ,-,19.3,ND,1.30E-01,ND,1.30E-01,
2022/6/12 3:00,28.2,30.7,0.0 ,1.6 ,1.8 ,-,19.3,ND,1.30E-01,ND,1.30E-01,
2022/6/12 4:00,28.2,30.7,0.0 ,1.6 ,1.8 ,-,19.3,ND,1.20E-01,ND,1.30E-01,
2022/6/12 5:00,28.2,30.7,0.0 ,1.6 ,1.7 ,-,19.3,ND,1.30E-01,ND,1.30E-01,
2022/6/12 6:00,28.2,30.8,0.0 ,1.6 ,1.8 ,-,19.3,ND,1.30E-01,ND,1.30E-01,
2022/6/12 7:00,28.2,30.8,0.0 ,1.7 ,1.7 ,-,19.3,ND,1.30E-01,ND,1.30E-01,
2022/6/12 8:00,28.2,30.8,0.0 ,1.6 ,1.7 ,-,19.3,ND,1.30E-01,ND,1.30E-01,
2022/6/12 9:00,28.2,30.8,0.0 ,1.6 ,1.8 ,-,19.3,ND,1.30E-01,ND,1.30E-01,
2022/6/12 10:00,28.2,30.8,0.0 ,1.6 ,1.8 ,-,19.3,ND,1.30E-01,ND,1.20E-01,
2022/6/12 11:00,28.2,30.8,0.0 ,1.6 ,1.8 ,-,19.3,ND,1.30E-01,ND,1.30E-01,
2022/6/12 12:00,28.2,30.8,0.0 ,1.6 ,1.8 ,-,19.2,ND,1.30E-01,ND,1.30E-01,
2022/6/12 13:00,28.2,30.8,0.0 ,1.6 ,1.8 ,-,19.2,ND,1.30E-01,ND,1.30E-01,
2022/6/12 14:00,28.2,30.7,0.0 ,1.6 ,1.7 ,-,19.3,ND,1.30E-01,ND,1.20E-01,
2022/6/12 15:00,28.2,30.7,0.0 ,1.7 ,1.8 ,-,19.2,ND,1.30E-01,ND,1.30E-01,
2022/6/12 16:00,28.2,30.7,0.0 ,1.6 ,1.7 ,-,19.3,ND,1.30E-01,ND,1.30E-01,
2022/6/12 17:00,28.2,30.7,0.0 ,1.6 ,1.8 ,-,19.3,ND,1.30E-01,ND,1.30E-01,
2022/6/12 18:00,28.2,30.8,0.0 ,1.6 ,1.7 ,-,19.3,ND,1.30E-01,ND,1.30E-01,
2022/6/12 19:00,28.2,30.8,0.0 ,1.6 ,1.8 ,-,19.3,ND,1.30E-01,ND,1.30E-01,
2022/6/12 20:00,28.2,30.7,0.0 ,1.6 ,1.7 ,-,19.3,ND,1.30E-01,ND,1.30E-01,
2022/6/12 21:00,28.2,30.7,0.0 ,1.6 ,1.8 ,-,19.2,ND,1.30E-01,ND,1.20E-01,
2022/6/12 22:00,28.2,30.7,0.0 ,1.6 ,1.7 ,-,19.2,ND,1.20E-01,ND,1.30E-01,
2022/6/12 23:00,28.2,30.7,0.0 ,1.6 ,1.8 ,-,19.3,ND,1.30E-01,ND,1.30E-01,
2022/6/13 0:00,28.2,30.7,0.0 ,1.6 ,1.7 ,-,19.3,ND,1.30E-01,ND,1.30E-01,
2022/6/13 1:00,28.2,30.8,0.0 ,1.6 ,1.8 ,-,19.1,ND,1.30E-01,ND,1.30E-01,
2022/6/13 2:00,28.2,30.8,0.0 ,1.6 ,1.7 ,-,19.3,ND,1.30E-01,ND,1.30E-01,
2022/6/13 3:00,28.2,30.8,0.0 ,1.6 ,1.7 ,-,19.2,ND,1.30E-01,ND,1.30E-01,
2022/6/13 4:00,28.2,30.8,0.0 ,1.6 ,1.8 ,-,19.1,ND,1.30E-01,ND,1.30E-01,
2022/6/13 5:00,28.2,30.8,0.0 ,1.6 ,1.8 ,-,19.1,ND,1.30E-01,ND,1.30E-01,
2022/6/13 6:00,28.2,30.7,0.0 ,1.6 ,1.8 ,-,19.1,ND,1.30E-01,ND,1.30E-01,
2022/6/13 7:00,28.2,30.8,0.0 ,1.6 ,1.8 ,-,19.1,ND,1.30E-01,ND,1.30E-01,
2022/6/13 8:00,28.2,30.7,0.0 ,1.6 ,1.7 ,-,19.1,ND,1.30E-01,ND,1.30E-01,
2022/6/13 9:00,28.2,30.6,0.0 ,1.6 ,1.7 ,-,19.2,ND,1.30E-01,ND,1.30E-01,
2022/6/13 10:00,28.2,30.6,0.0 ,1.6 ,1.7 ,-,19.3,ND,1.30E-01,ND,1.30E-01,
2022/6/13 11:00,28.2,30.7,0.0 ,1.6 ,1.8 ,-,19.3,ND,1.30E-01,ND,1.20E-01,
2022/6/13 12:00,28.2,30.7,0.0 ,1.6 ,1.8 ,-,19.3,ND,1.30E-01,ND,1.30E-01,
2022/6/13 13:00,28.2,30.6,0.0 ,1.6 ,1.8 ,-,19.2,ND,1.30E-01,ND,1.30E-01,
2022/6/13 14:00,28.2,30.6,0.0 ,1.6 ,1.7 ,-,19.3,ND,1.30E-01,ND,1.30E-01,
2022/6/13 15:00,28.2,30.6,0.0 ,1.6 ,1.7 ,-,19.3,ND,1.20E-01,ND,1.30E-01,
2022/6/13 16:00,28.2,30.7,0.0 ,1.6 ,1.7 ,-,19.3,ND,1.30E-01,ND,1.30E-01,
2022/6/13 17:00,28.2,30.7,0.0 ,1.6 ,1.7 ,-,19.3,ND,1.30E-01,ND,1.30E-01,
2022/6/13 18:00,28.2,30.7,0.0 ,1.6 ,1.7 ,-,19.3,ND,1.30E-01,ND,1.30E-01,
2022/6/13 19:00,28.2,30.7,0.0 ,1.6 ,1.7 ,-,19.4,ND,1.30E-01,ND,1.30E-01,
2022/6/13 20:00,28.2,30.7,0.0 ,1.6 ,1.7 ,-,19.3,ND,1.30E-01,ND,1.30E-01,
2022/6/13 21:00,28.2,30.7,0.0 ,1.6 ,1.7 ,-,19.3,ND,1.30E-01,ND,1.20E-01,
2022/6/13 22:00,28.2,30.7,0.0 ,1.6 ,1.8 ,-,19.4,ND,1.30E-01,ND,1.30E-01,
2022/6/13 23:00,28.2,30.7,0.0 ,1.6 ,1.8 ,-,19.3,ND,1.30E-01,ND,1.20E-01,
2022/6/14 0:00,28.2,30.7,0.0 ,1.6 ,1.7 ,-,19.3,ND,1.30E-01,ND,1.30E-01,
2022/6/14 1:00,28.2,30.7,0.0 ,1.6 ,1.7 ,-,19.3,ND,1.30E-01,ND,1.30E-01,
2022/6/14 2:00,28.2,30.7,0.0 ,1.6 ,1.8 ,-,19.3,ND,1.30E-01,ND,1.20E-01,
2022/6/14 3:00,28.2,30.7,0.0 ,1.6 ,1.7 ,-,19.3,ND,1.30E-01,ND,1.30E-01,
2022/6/14 4:00,28.2,30.7,0.0 ,1.6 ,1.7 ,-,19.3,ND,1.30E-01,ND,1.30E-01,
2022/6/14 5:00,28.2,30.7,0.0 ,1.6 ,1.7 ,-,19.3,ND,1.30E-01,ND,1.30E-01,
2022/6/14 6:00,28.2,30.6,0.0 ,1.6 ,1.8 ,-,19.3,ND,1.30E-01,ND,1.30E-01,
2022/6/14 7:00,28.2,30.7,0.0 ,1.6 ,1.7 ,-,19.3,ND,1.30E-01,ND,1.30E-01,
2022/6/14 8:00,28.2,30.6,0.0 ,1.6 ,1.7 ,-,19.3,ND,1.30E-01,ND,1.30E-01,